Weather History for Lyndonville, VT

Change the Weather History Date:

Saturday, March 23, 2013

  Actual Average (K1V4) Record (K1V4)
Temperature  
Mean Temperature 26 °F 34 °F  
Max Temperature 32 °F 44 °F 74 °F (1938)
Min Temperature 22 °F 23 °F -11 °F (1939)
Degree Days  
Heating Degree Days 38 32  
Month to date heating degree days 840  
Since 1 July heating degree days 6564  
Cooling Degree Days 0 0  
Month to date cooling degree days 0  
Year to date cooling degree days 0  
Moisture  
Dew Point 20 °F    
Average Humidity 73    
Maximum Humidity 89    
Minimum Humidity 61    
Precipitation  
Precipitation 0.00 in 0.09 in 1.06 in (2010)
Month to date precipitation 1.82  
Year to date precipitation 6.50  
Sea Level Pressure  
Sea Level Pressure 29.64 in    
Wind  
Wind Speed 8 mph (West)    
Max Wind Speed 23 mph    
Max Gust Speed 32 mph    
Visibility 6 miles    
Events Snow    
T = Trace of Precipitation, MM = Missing Value Source: NWS Daily Summary

Daily Weather History Graph

Daily Weather History Graph

Search for Another Location

Airport:

Trip Planner

Search our weather history database for the weather conditions in past years. The results will help you decide how hot, cold, wet, or windy it might be!

Date:

Astronomy

Mar. 23, 2013 Rise Set
Actual Time 6:45 AM EDT 7:04 PM EDT
Civil Twilight 6:16 AM EDT 7:33 PM EDT
Nautical Twilight 5:41 AM EDT 8:08 PM EDT
Astronomical Twilight 5:06 AM EDT 8:43 PM EDT
Moon 3:20 PM EDT (3/23) 4:28 AM EDT (3/23)
Length of Visible Light 13h 17m
Length of Day
12h 19m
Waxing Gibbous, 85% of the Moon is Illuminated
Mar 23
Waxing Gibbous
Mar 27
Full
Apr 3
Last Quarter
Apr 10
New
Apr 18
First Quarter

Hourly Weather History & Observations

Time (EDT) Temp. Windchill Dew Point Humidity Pressure Visibility Wind Dir Wind Speed Gust Speed Precip Events Conditions
12:15 AM 23.7 °F - 17.4 °F 77% 29.66 in 3.0 mi Calm Calm - N/A Snow Light Snow
12:35 AM 23.4 °F - 17.6 °F 79% 29.66 in 3.0 mi Calm Calm - N/A Snow Light Snow
12:55 AM 23.0 °F 18.4 °F 17.8 °F 80% 29.66 in 3.0 mi WNW 3.5 mph - N/A Snow Light Snow
1:15 AM 23.4 °F 17.4 °F 17.8 °F 79% 29.66 in 2.5 mi WNW 4.6 mph - N/A Snow Light Snow
1:55 AM 23.0 °F 18.4 °F 18.5 °F 83% 29.65 in 4.0 mi WNW 3.5 mph - N/A Snow Light Snow
2:15 AM 23.2 °F 18.7 °F 18.5 °F 82% 29.65 in 2.0 mi WSW 3.5 mph - N/A Snow Light Snow
2:35 AM 23.0 °F - 19.2 °F 85% 29.64 in 2.5 mi Calm Calm - N/A Snow Light Snow
2:55 AM 22.8 °F - 19.4 °F 87% 29.64 in 1.8 mi Calm Calm - N/A Snow Light Snow
3:15 AM 22.5 °F 17.8 °F 19.4 °F 88% 29.63 in 1.8 mi WSW 3.5 mph - N/A Snow Light Snow
3:35 AM 22.1 °F 15.9 °F 19.2 °F 89% 29.62 in 5.0 mi SW 4.6 mph - N/A Snow Light Snow
3:55 AM 22.1 °F 17.4 °F 19.2 °F 89% 29.61 in 10.0 mi WSW 3.5 mph - N/A   Overcast
4:35 AM 22.5 °F 17.8 °F 19.2 °F 87% 29.60 in 10.0 mi West 3.5 mph - N/A   Overcast
4:55 AM 23.5 °F 17.6 °F 19.2 °F 84% 29.60 in 10.0 mi WNW 4.6 mph - N/A Snow Light Snow
5:15 AM 24.8 °F 19.1 °F 19.9 °F 82% 29.61 in 10.0 mi WNW 4.6 mph - N/A   Overcast
5:35 AM 24.8 °F 20.5 °F 19.9 °F 82% 29.61 in 5.0 mi West 3.5 mph - N/A Snow Light Snow
5:55 AM 24.1 °F 16.0 °F 19.4 °F 82% 29.60 in 7.0 mi West 6.9 mph - N/A Snow Light Snow
6:15 AM 24.8 °F 17.9 °F 20.1 °F 82% 29.60 in 4.0 mi West 5.8 mph - N/A Snow Light Snow
6:55 AM 24.8 °F 15.3 °F 21.2 °F 86% 29.60 in 1.8 mi West 9.2 mph - N/A Snow Light Snow
7:15 AM 24.8 °F 15.3 °F 20.7 °F 84% 29.60 in 1.8 mi West 9.2 mph 16.1 mph N/A Snow Light Snow
7:35 AM 24.8 °F 16.1 °F 20.7 °F 84% 29.60 in 3.0 mi West 8.1 mph - N/A Snow Light Snow
7:55 AM 25.2 °F 16.5 °F 20.8 °F 84% 29.60 in 1.5 mi West 8.1 mph - N/A Snow Light Snow
8:15 AM 25.3 °F 16.0 °F 20.7 °F 82% 29.60 in 1.8 mi West 9.2 mph - N/A Snow Light Snow
8:35 AM 26.2 °F 17.8 °F 20.5 °F 79% 29.60 in 4.0 mi West 8.1 mph - N/A Snow Light Snow
8:55 AM 26.6 °F 16.8 °F 20.3 °F 77% 29.59 in 2.0 mi West 10.4 mph - N/A Snow Light Snow
9:15 AM 27.1 °F 18.9 °F 20.7 °F 77% 29.60 in 1.2 mi West 8.1 mph 16.1 mph N/A Snow Light Snow
9:35 AM 27.7 °F 21.3 °F 21.2 °F 77% 29.60 in 2.0 mi WNW 5.8 mph 9.2 mph N/A Snow Light Snow
9:55 AM 27.9 °F 17.3 °F 20.3 °F 73% 29.59 in 2.5 mi West 12.7 mph 18.4 mph N/A Snow Light Snow
10:15 AM 28.8 °F 18.4 °F 19.9 °F 70% 29.59 in 7.0 mi West 12.7 mph 18.4 mph N/A Snow Light Snow
10:35 AM 29.3 °F 17.0 °F 18.9 °F 65% 29.57 in 5.0 mi West 18.4 mph 24.2 mph N/A   Haze
10:55 AM 30.2 °F 18.1 °F 18.7 °F 62% 29.57 in 7.0 mi WNW 18.4 mph 26.5 mph N/A   Overcast
11:15 AM 30.0 °F 18.7 °F 18.0 °F 61% 29.57 in 7.0 mi West 16.1 mph 26.5 mph N/A   Overcast
11:35 AM 30.2 °F 18.5 °F 18.3 °F 61% 29.57 in 5.0 mi West 17.3 mph 28.8 mph N/A   Haze
11:55 AM 30.2 °F 17.4 °F 18.3 °F 61% 29.57 in 5.0 mi West 20.7 mph 28.8 mph N/A   Haze
12:15 PM 30.9 °F 19.1 °F 18.9 °F 61% 29.57 in 4.0 mi West 18.4 mph 27.6 mph N/A   Haze
12:35 PM 31.3 °F 19.5 °F 19.8 °F 62% 29.57 in 4.0 mi West 18.4 mph 27.6 mph N/A Snow Light Snow
12:55 PM 30.7 °F 18.8 °F 20.3 °F 65% 29.58 in 2.5 mi West 18.4 mph 28.8 mph N/A Snow Light Snow
1:15 PM 30.6 °F 19.0 °F 20.7 °F 67% 29.59 in 4.0 mi West 17.3 mph 21.9 mph N/A Snow Light Snow
1:35 PM 30.2 °F 18.5 °F 20.1 °F 66% 29.59 in 3.0 mi West 17.3 mph 25.3 mph N/A Snow Light Snow
1:55 PM 30.2 °F 19.3 °F 20.1 °F 66% 29.59 in 3.0 mi West 15.0 mph 24.2 mph N/A Snow Light Snow
2:15 PM 30.2 °F 18.5 °F 20.8 °F 68% 29.60 in 2.5 mi West 17.3 mph 25.3 mph N/A Snow Light Snow
2:35 PM 30.7 °F 19.6 °F 21.0 °F 67% 29.60 in 2.5 mi West 16.1 mph 32.2 mph N/A Snow Light Snow
2:55 PM 30.7 °F 19.2 °F 21.0 °F 67% 29.61 in 4.0 mi West 17.3 mph 24.2 mph N/A Snow Light Snow
3:15 PM 30.4 °F 19.1 °F 21.2 °F 69% 29.62 in 3.0 mi West 16.1 mph 29.9 mph N/A Snow Light Snow
3:35 PM 30.6 °F 21.2 °F 21.2 °F 68% 29.62 in 4.0 mi West 11.5 mph 23.0 mph N/A Snow Light Snow
3:55 PM 30.9 °F 19.1 °F 20.8 °F 66% 29.63 in 4.0 mi West 18.4 mph 25.3 mph N/A Snow Light Snow
4:15 PM 31.1 °F 18.0 °F 21.0 °F 66% 29.62 in 4.0 mi West 23.0 mph 32.2 mph N/A Snow Light Snow
4:35 PM 31.6 °F 21.6 °F 21.0 °F 65% 29.64 in 7.0 mi West 13.8 mph 25.3 mph N/A   Overcast
4:55 PM 31.8 °F 20.2 °F 21.2 °F 65% 29.64 in 5.0 mi West 18.4 mph 31.1 mph N/A Snow Light Snow
5:15 PM 31.3 °F 21.1 °F 21.4 °F 67% 29.65 in 7.0 mi West 13.8 mph 27.6 mph N/A Snow Light Snow
5:35 PM 31.1 °F 19.7 °F 21.2 °F 67% 29.65 in 10.0 mi West 17.3 mph 21.9 mph N/A   Overcast
5:55 PM 31.1 °F 18.6 °F 21.2 °F 67% 29.66 in 7.0 mi WNW 20.7 mph 24.2 mph N/A Snow Light Snow
6:15 PM 30.9 °F 21.2 °F 21.2 °F 67% 29.66 in 10.0 mi West 12.7 mph 21.9 mph N/A   Overcast
6:35 PM 31.1 °F 20.1 °F 21.0 °F 66% 29.67 in 10.0 mi West 16.1 mph 24.2 mph N/A   Overcast
6:55 PM 30.9 °F 21.2 °F 21.2 °F 67% 29.68 in 10.0 mi West 12.7 mph 24.2 mph N/A   Overcast
7:15 PM 30.6 °F 20.7 °F 21.6 °F 69% 29.69 in 10.0 mi WNW 12.7 mph 18.4 mph N/A Snow Light Snow
7:35 PM 30.2 °F 20.2 °F 22.1 °F 72% 29.69 in 10.0 mi West 12.7 mph 19.6 mph N/A   Overcast
7:55 PM 30.2 °F 20.2 °F 22.3 °F 72% 29.70 in 10.0 mi West 12.7 mph 20.7 mph N/A   Overcast
8:15 PM 30.2 °F 19.3 °F 22.5 °F 73% 29.70 in 7.0 mi West 15.0 mph 19.6 mph N/A Snow Light Snow
8:35 PM 30.2 °F 19.3 °F 22.1 °F 72% 29.71 in 7.0 mi West 15.0 mph 20.7 mph N/A Snow Light Snow
8:55 PM 30.2 °F 21.9 °F 22.1 °F 72% 29.72 in 10.0 mi West 9.2 mph 19.6 mph N/A Snow Light Snow
9:15 PM 30.6 °F 21.2 °F 21.7 °F 70% 29.72 in 10.0 mi West 11.5 mph 19.6 mph N/A Snow Light Snow
9:35 PM 30.6 °F 20.7 °F 21.2 °F 68% 29.72 in 10.0 mi WNW 12.7 mph 19.6 mph N/A Snow Light Snow
9:55 PM 30.6 °F 21.8 °F 21.2 °F 68% 29.73 in 10.0 mi West 10.4 mph - N/A   Overcast
10:15 PM 30.9 °F 21.7 °F 20.8 °F 66% 29.72 in 10.0 mi WNW 11.5 mph - N/A   Overcast
10:35 PM 30.7 °F 20.9 °F 20.8 °F 67% 29.72 in 10.0 mi WNW 12.7 mph 19.6 mph N/A   Overcast
10:55 PM 30.7 °F 21.4 °F 21.0 °F 67% 29.72 in 10.0 mi West 11.5 mph - N/A   Overcast
11:15 PM 30.7 °F 23.3 °F 21.0 °F 67% 29.72 in 10.0 mi West 8.1 mph - N/A Snow Light Snow
11:35 PM 30.7 °F 22.0 °F 20.8 °F 67% 29.72 in 10.0 mi WNW 10.4 mph 16.1 mph N/A   Overcast
11:55 PM 31.1 °F 21.4 °F 20.3 °F 64% 29.71 in 10.0 mi WNW 12.7 mph 19.6 mph N/A   Overcast